Year,Month,Day,Hour,Minute,Value (Times are PST for temperature in C)
2017,10,30,00,00,9.00
2017,10,30,00,01,9.00
2017,10,30,00,02,9.00
2017,10,30,00,03,8.90
2017,10,30,00,04,8.80
2017,10,30,00,05,8.70
2017,10,30,00,06,8.60
2017,10,30,00,07,8.60
2017,10,30,00,08,8.60
2017,10,30,00,09,8.60
2017,10,30,00,10,8.60
2017,10,30,00,11,8.60
2017,10,30,00,12,8.60
2017,10,30,00,13,8.60
2017,10,30,00,14,8.70
2017,10,30,00,15,8.80
2017,10,30,00,16,8.80
2017,10,30,00,17,8.90
2017,10,30,00,18,8.90
2017,10,30,00,19,8.90
2017,10,30,00,20,9.00
2017,10,30,00,21,9.00
2017,10,30,00,22,9.10
2017,10,30,00,23,9.10
2017,10,30,00,24,9.10
2017,10,30,00,25,9.20
2017,10,30,00,26,9.20
2017,10,30,00,27,9.20
2017,10,30,00,28,9.20
2017,10,30,00,29,9.20
2017,10,30,00,30,9.20
2017,10,30,00,31,9.30
2017,10,30,00,32,9.30
2017,10,30,00,33,9.30
2017,10,30,00,34,9.30
2017,10,30,00,35,9.40
2017,10,30,00,36,9.40
2017,10,30,00,37,9.30
2017,10,30,00,38,9.30
2017,10,30,00,39,9.30
2017,10,30,00,40,9.30
2017,10,30,00,41,9.30
2017,10,30,00,42,9.30
2017,10,30,00,43,9.30
2017,10,30,00,44,9.30
2017,10,30,00,45,9.30
2017,10,30,00,46,9.30
2017,10,30,00,47,9.30
2017,10,30,00,48,9.30
2017,10,30,00,49,9.20
2017,10,30,00,50,9.20
2017,10,30,00,51,9.30
2017,10,30,00,52,9.30
2017,10,30,00,53,9.30
2017,10,30,00,54,9.40
2017,10,30,00,55,9.40
2017,10,30,00,56,9.40
2017,10,30,00,57,9.40
2017,10,30,00,58,9.40
2017,10,30,00,59,9.50
2017,10,30,01,00,9.50
2017,10,30,01,01,9.40
2017,10,30,01,02,9.30
2017,10,30,01,03,9.30
2017,10,30,01,04,9.30
2017,10,30,01,05,9.20
2017,10,30,01,06,9.20
2017,10,30,01,07,9.10
2017,10,30,01,08,9.00
2017,10,30,01,09,9.00
2017,10,30,01,10,8.90
2017,10,30,01,11,8.80
2017,10,30,01,12,8.80
2017,10,30,01,13,8.70
2017,10,30,01,14,8.60
2017,10,30,01,15,8.60
2017,10,30,01,16,8.50
2017,10,30,01,17,8.50
2017,10,30,01,18,8.60
2017,10,30,01,19,8.60
2017,10,30,01,20,8.60
2017,10,30,01,21,8.60
2017,10,30,01,22,8.70
2017,10,30,01,23,8.70
2017,10,30,01,24,8.80
2017,10,30,01,25,8.80
2017,10,30,01,26,8.90
2017,10,30,01,27,9.00
2017,10,30,01,28,9.00
2017,10,30,01,29,9.00
2017,10,30,01,30,9.00
2017,10,30,01,31,9.00
2017,10,30,01,32,9.00
2017,10,30,01,33,9.00
2017,10,30,01,34,9.00
2017,10,30,01,35,9.00
2017,10,30,01,36,9.00
2017,10,30,01,37,9.10
2017,10,30,01,38,9.10
2017,10,30,01,39,9.20
2017,10,30,01,40,9.20
2017,10,30,01,41,9.20
2017,10,30,01,42,9.20
2017,10,30,01,43,9.30
2017,10,30,01,44,9.30
2017,10,30,01,45,9.30
2017,10,30,01,46,9.30
2017,10,30,01,47,9.30
2017,10,30,01,48,9.20
2017,10,30,01,49,9.20
2017,10,30,01,50,9.20
2017,10,30,01,51,9.20
2017,10,30,01,52,9.10
2017,10,30,01,53,9.10
2017,10,30,01,54,9.00
2017,10,30,01,55,8.90
2017,10,30,01,56,8.80
2017,10,30,01,57,8.70
2017,10,30,01,58,8.60
2017,10,30,01,59,8.60
2017,10,30,02,00,8.50
2017,10,30,02,01,8.50
2017,10,30,02,02,8.50
2017,10,30,02,03,8.50
2017,10,30,02,04,8.50
2017,10,30,02,05,8.50
2017,10,30,02,06,8.60
2017,10,30,02,07,8.60
2017,10,30,02,08,8.60
2017,10,30,02,09,8.60
2017,10,30,02,10,8.60
2017,10,30,02,11,8.50
2017,10,30,02,12,8.50
2017,10,30,02,13,8.40
2017,10,30,02,14,8.40
2017,10,30,02,15,8.40
2017,10,30,02,16,8.30
2017,10,30,02,17,8.30
2017,10,30,02,18,8.20
2017,10,30,02,19,8.20
2017,10,30,02,20,8.10
2017,10,30,02,21,8.10
2017,10,30,02,22,8.10
2017,10,30,02,23,8.00
2017,10,30,02,24,8.00
2017,10,30,02,25,8.00
2017,10,30,02,26,8.00
2017,10,30,02,27,7.90
2017,10,30,02,28,7.80
2017,10,30,02,29,7.70
2017,10,30,02,30,7.60
2017,10,30,02,31,7.50
2017,10,30,02,32,7.40
2017,10,30,02,33,7.30
2017,10,30,02,34,7.30
2017,10,30,02,35,7.20
2017,10,30,02,36,7.20
2017,10,30,02,37,7.20
2017,10,30,02,38,7.10
2017,10,30,02,39,7.00
2017,10,30,02,40,7.00
2017,10,30,02,41,6.90
2017,10,30,02,42,6.90
2017,10,30,02,43,6.90
2017,10,30,02,44,6.90
2017,10,30,02,45,6.90
2017,10,30,02,46,6.90
2017,10,30,02,47,6.90
2017,10,30,02,48,6.90
2017,10,30,02,49,6.90
2017,10,30,02,50,6.90
2017,10,30,02,51,7.00
2017,10,30,02,52,7.00
2017,10,30,02,53,7.10
2017,10,30,02,54,7.10
2017,10,30,02,55,7.10
2017,10,30,02,56,7.20
2017,10,30,02,57,7.20
2017,10,30,02,58,7.20
2017,10,30,02,59,7.20
2017,10,30,03,00,7.20
2017,10,30,03,01,7.20
2017,10,30,03,02,7.20
2017,10,30,03,03,7.10
2017,10,30,03,04,7.10
2017,10,30,03,05,7.00
2017,10,30,03,06,7.00
2017,10,30,03,07,7.00
2017,10,30,03,08,6.90
2017,10,30,03,09,6.90
2017,10,30,03,10,6.80
2017,10,30,03,11,6.80
2017,10,30,03,12,6.70
2017,10,30,03,13,6.60
2017,10,30,03,14,6.60
2017,10,30,03,15,6.50
2017,10,30,03,16,6.50
2017,10,30,03,17,6.50
2017,10,30,03,18,6.40
2017,10,30,03,19,6.40
2017,10,30,03,20,6.40
2017,10,30,03,21,6.50
2017,10,30,03,22,6.60
2017,10,30,03,23,6.60
2017,10,30,03,24,6.70
2017,10,30,03,25,6.70
2017,10,30,03,26,6.70
2017,10,30,03,27,6.70
2017,10,30,03,28,6.80
2017,10,30,03,29,6.80
2017,10,30,03,30,6.80
2017,10,30,03,31,6.70
2017,10,30,03,32,6.70
2017,10,30,03,33,6.70
2017,10,30,03,34,6.70
2017,10,30,03,35,6.70
2017,10,30,03,36,6.70
2017,10,30,03,37,6.70
2017,10,30,03,38,6.70
2017,10,30,03,39,6.70
2017,10,30,03,40,6.70
2017,10,30,03,41,6.70
2017,10,30,03,42,6.70
2017,10,30,03,43,6.70
2017,10,30,03,44,6.70
2017,10,30,03,45,6.70
2017,10,30,03,46,6.80
2017,10,30,03,47,6.80
2017,10,30,03,48,6.80
2017,10,30,03,49,6.90
2017,10,30,03,50,6.90
2017,10,30,03,51,6.90
2017,10,30,03,52,7.00
2017,10,30,03,53,7.00
2017,10,30,03,54,7.10
2017,10,30,03,55,7.10
2017,10,30,03,56,7.20
2017,10,30,03,57,7.20
2017,10,30,03,58,7.30
2017,10,30,03,59,7.30
2017,10,30,04,00,7.40
2017,10,30,04,01,7.40
2017,10,30,04,02,7.40
2017,10,30,04,03,7.40
2017,10,30,04,04,7.40
2017,10,30,04,05,7.40
2017,10,30,04,06,7.40
2017,10,30,04,07,7.40
2017,10,30,04,08,7.50
2017,10,30,04,09,7.50
2017,10,30,04,10,7.50
2017,10,30,04,11,7.60
2017,10,30,04,12,7.60
2017,10,30,04,13,7.60
2017,10,30,04,14,7.60
2017,10,30,04,15,7.50
2017,10,30,04,16,7.60
2017,10,30,04,17,7.60
2017,10,30,04,18,7.50
2017,10,30,04,19,7.60
2017,10,30,04,20,7.60
2017,10,30,04,21,7.60
2017,10,30,04,22,7.60
2017,10,30,04,23,7.60
2017,10,30,04,24,7.60
2017,10,30,04,25,7.60
2017,10,30,04,26,7.60
2017,10,30,04,27,7.60
2017,10,30,04,28,7.60
2017,10,30,04,29,7.50
2017,10,30,04,30,7.50
2017,10,30,04,31,7.50
2017,10,30,04,32,7.50
2017,10,30,04,33,7.60
2017,10,30,04,34,7.60
2017,10,30,04,35,7.70
2017,10,30,04,36,7.70
2017,10,30,04,37,7.70
2017,10,30,04,38,7.70
2017,10,30,04,39,7.70
2017,10,30,04,40,7.70
2017,10,30,04,41,7.70
2017,10,30,04,42,7.70
2017,10,30,04,43,7.70
2017,10,30,04,44,7.70
2017,10,30,04,45,7.80
2017,10,30,04,46,7.80
2017,10,30,04,47,7.80
2017,10,30,04,48,7.80
2017,10,30,04,49,7.80
2017,10,30,04,50,7.80
2017,10,30,04,51,7.80
2017,10,30,04,52,7.70
2017,10,30,04,53,7.60
2017,10,30,04,54,7.60
2017,10,30,04,55,7.60
2017,10,30,04,56,7.50
2017,10,30,04,57,7.50
2017,10,30,04,58,7.40
2017,10,30,04,59,7.40
2017,10,30,05,00,7.40
2017,10,30,05,01,7.40
2017,10,30,05,02,7.40
2017,10,30,05,03,7.30
2017,10,30,05,04,7.30
2017,10,30,05,05,7.20
2017,10,30,05,06,7.10
2017,10,30,05,07,7.00
2017,10,30,05,08,6.90
2017,10,30,05,09,6.80
2017,10,30,05,10,6.70
2017,10,30,05,11,6.50
2017,10,30,05,12,6.40
2017,10,30,05,13,6.20
2017,10,30,05,14,6.10
2017,10,30,05,15,6.00
2017,10,30,05,16,5.90
2017,10,30,05,17,5.70
2017,10,30,05,18,5.60
2017,10,30,05,19,5.50
2017,10,30,05,20,5.40
2017,10,30,05,21,5.30
2017,10,30,05,22,5.20
2017,10,30,05,23,5.10
2017,10,30,05,24,5.10
2017,10,30,05,25,5.00
2017,10,30,05,26,4.90
2017,10,30,05,27,4.90
2017,10,30,05,28,4.80
2017,10,30,05,29,4.80
2017,10,30,05,30,4.80
2017,10,30,05,31,4.80
2017,10,30,05,32,4.80
2017,10,30,05,33,4.80
2017,10,30,05,34,4.80
2017,10,30,05,35,4.90
2017,10,30,05,36,4.90
2017,10,30,05,37,4.90
2017,10,30,05,38,5.00
2017,10,30,05,39,5.00
2017,10,30,05,40,5.10
2017,10,30,05,41,5.10
2017,10,30,05,42,5.10
2017,10,30,05,43,5.20
2017,10,30,05,44,5.20
2017,10,30,05,45,5.20
2017,10,30,05,46,5.20
2017,10,30,05,47,5.20
2017,10,30,05,48,5.20
2017,10,30,05,49,5.20
2017,10,30,05,50,5.30
2017,10,30,05,51,5.30
2017,10,30,05,52,5.30
2017,10,30,05,53,5.30
2017,10,30,05,54,5.40
2017,10,30,05,55,5.40
2017,10,30,05,56,5.40
2017,10,30,05,57,5.50
2017,10,30,05,58,5.60
2017,10,30,05,59,5.60
2017,10,30,06,00,5.70
2017,10,30,06,01,5.70
2017,10,30,06,02,5.80
2017,10,30,06,03,5.90
2017,10,30,06,04,5.90
2017,10,30,06,05,5.90
2017,10,30,06,06,6.00
2017,10,30,06,07,6.00
2017,10,30,06,08,6.00
2017,10,30,06,09,6.10
2017,10,30,06,10,6.10
2017,10,30,06,11,6.10
2017,10,30,06,12,6.20
2017,10,30,06,13,6.20
2017,10,30,06,14,6.30
2017,10,30,06,15,6.30
2017,10,30,06,16,6.30
2017,10,30,06,17,6.30
2017,10,30,06,18,6.30
2017,10,30,06,19,6.40
2017,10,30,06,20,6.40
2017,10,30,06,21,6.40
2017,10,30,06,22,6.40
2017,10,30,06,23,6.40
2017,10,30,06,24,6.30
2017,10,30,06,25,6.30
2017,10,30,06,26,6.20
2017,10,30,06,27,6.20
2017,10,30,06,28,6.10
2017,10,30,06,29,6.10
2017,10,30,06,30,6.00
2017,10,30,06,31,5.90
2017,10,30,06,32,5.90
2017,10,30,06,33,5.90
2017,10,30,06,34,5.90
2017,10,30,06,35,5.90
2017,10,30,06,36,5.90
2017,10,30,06,37,5.90
2017,10,30,06,38,6.00
2017,10,30,06,39,6.00
2017,10,30,06,40,6.10
2017,10,30,06,41,6.10
2017,10,30,06,42,6.10
2017,10,30,06,43,6.10
2017,10,30,06,44,6.10
2017,10,30,06,45,6.10
2017,10,30,06,46,6.10
2017,10,30,06,47,6.10
2017,10,30,06,48,6.10
2017,10,30,06,49,6.10
2017,10,30,06,50,6.20
2017,10,30,06,51,6.20
2017,10,30,06,52,6.20
2017,10,30,06,53,6.20
2017,10,30,06,54,6.20
2017,10,30,06,55,6.20
2017,10,30,06,56,6.20
2017,10,30,06,57,6.20
2017,10,30,06,58,6.20
2017,10,30,06,59,6.20
2017,10,30,07,00,6.30
2017,10,30,07,01,6.30
2017,10,30,07,02,6.40
2017,10,30,07,03,6.50
2017,10,30,07,04,6.50
2017,10,30,07,05,6.50
2017,10,30,07,06,6.60
2017,10,30,07,07,6.60
2017,10,30,07,08,6.60
2017,10,30,07,09,6.60
2017,10,30,07,10,6.60
2017,10,30,07,11,6.70
2017,10,30,07,12,6.70
2017,10,30,07,13,6.70
2017,10,30,07,14,6.70
2017,10,30,07,15,6.70
2017,10,30,07,16,6.70
2017,10,30,07,17,6.70
2017,10,30,07,18,6.60
2017,10,30,07,19,6.60
2017,10,30,07,20,6.50
2017,10,30,07,21,6.50
2017,10,30,07,22,6.50
2017,10,30,07,23,6.40
2017,10,30,07,24,6.40
2017,10,30,07,25,6.40
2017,10,30,07,26,6.40
2017,10,30,07,27,6.30
2017,10,30,07,28,6.30
2017,10,30,07,29,6.30
2017,10,30,07,30,6.20
2017,10,30,07,31,6.10
2017,10,30,07,32,6.10
2017,10,30,07,33,6.00
2017,10,30,07,34,6.00
2017,10,30,07,35,5.90
2017,10,30,07,36,5.90
2017,10,30,07,37,5.90
2017,10,30,07,38,5.80
2017,10,30,07,39,5.80
2017,10,30,07,40,5.80
2017,10,30,07,41,5.80
2017,10,30,07,42,5.70
2017,10,30,07,43,5.70
2017,10,30,07,44,5.70
2017,10,30,07,45,5.70
2017,10,30,07,46,5.70
2017,10,30,07,47,5.70
2017,10,30,07,48,5.70
2017,10,30,07,49,5.60
2017,10,30,07,50,5.60
2017,10,30,07,51,5.60
2017,10,30,07,52,5.60
2017,10,30,07,53,5.60
2017,10,30,07,54,5.60
2017,10,30,07,55,5.60
2017,10,30,07,56,5.60
2017,10,30,07,57,5.60
2017,10,30,07,58,5.60
2017,10,30,07,59,5.70
2017,10,30,08,00,5.70
2017,10,30,08,01,5.70
2017,10,30,08,02,5.80
2017,10,30,08,03,5.80
2017,10,30,08,04,5.90
2017,10,30,08,05,5.90
2017,10,30,08,06,6.00
2017,10,30,08,07,6.10
2017,10,30,08,08,6.10
2017,10,30,08,09,6.20
2017,10,30,08,10,6.30
2017,10,30,08,11,6.30
2017,10,30,08,12,6.40
2017,10,30,08,13,6.40
2017,10,30,08,14,6.40
2017,10,30,08,15,6.40
2017,10,30,08,16,6.30
2017,10,30,08,17,6.30
2017,10,30,08,18,6.20
2017,10,30,08,19,6.20
2017,10,30,08,20,6.20
2017,10,30,08,21,6.10
2017,10,30,08,22,6.10
2017,10,30,08,23,6.10
2017,10,30,08,24,6.10
2017,10,30,08,25,6.10
2017,10,30,08,26,6.10
2017,10,30,08,27,6.10
2017,10,30,08,28,6.10
2017,10,30,08,29,6.10
2017,10,30,08,30,6.10
2017,10,30,08,31,6.10
2017,10,30,08,32,6.10
2017,10,30,08,33,6.10
2017,10,30,08,34,6.10
2017,10,30,08,35,6.00
2017,10,30,08,36,6.00
2017,10,30,08,37,6.00
2017,10,30,08,38,5.90
2017,10,30,08,39,5.80
2017,10,30,08,40,5.70
2017,10,30,08,41,5.70
2017,10,30,08,42,5.60
2017,10,30,08,43,5.50
2017,10,30,08,44,5.40
2017,10,30,08,45,5.40
2017,10,30,08,46,5.30
2017,10,30,08,47,5.30
2017,10,30,08,48,5.20
2017,10,30,08,49,5.20
2017,10,30,08,50,5.20
2017,10,30,08,51,5.30
2017,10,30,08,52,5.30
2017,10,30,08,53,5.30
2017,10,30,08,54,5.40
2017,10,30,08,55,5.40
2017,10,30,08,56,5.50
2017,10,30,08,57,5.50
2017,10,30,08,58,5.50
2017,10,30,08,59,5.60
2017,10,30,09,00,5.60
2017,10,30,09,01,5.60
2017,10,30,09,02,5.70
2017,10,30,09,03,5.70
2017,10,30,09,04,5.80
2017,10,30,09,05,5.80
2017,10,30,09,06,5.90
2017,10,30,09,07,6.00
2017,10,30,09,08,6.10
2017,10,30,09,09,6.20
2017,10,30,09,10,6.20
2017,10,30,09,11,6.30
2017,10,30,09,12,6.40
2017,10,30,09,13,6.50
2017,10,30,09,14,6.60
2017,10,30,09,15,6.60
2017,10,30,09,16,6.70
2017,10,30,09,17,6.80
2017,10,30,09,18,6.80
2017,10,30,09,19,6.90
2017,10,30,09,20,6.90
2017,10,30,09,21,6.90
2017,10,30,09,22,7.00
2017,10,30,09,23,7.10
2017,10,30,09,24,7.10
2017,10,30,09,25,7.10
2017,10,30,09,26,7.20
2017,10,30,09,27,7.20
2017,10,30,09,28,7.30
2017,10,30,09,29,7.30
2017,10,30,09,30,7.30
2017,10,30,09,31,7.40
2017,10,30,09,32,7.40
2017,10,30,09,33,7.40
2017,10,30,09,34,7.50
2017,10,30,09,35,7.50
2017,10,30,09,36,7.60
2017,10,30,09,37,7.60
2017,10,30,09,38,7.60
2017,10,30,09,39,7.70
2017,10,30,09,40,7.70
2017,10,30,09,41,7.70
2017,10,30,09,42,7.80
2017,10,30,09,43,7.80
2017,10,30,09,44,7.90
2017,10,30,09,45,7.90
2017,10,30,09,46,8.00
2017,10,30,09,47,8.10
2017,10,30,09,48,8.10
2017,10,30,09,49,8.20
2017,10,30,09,50,8.20
2017,10,30,09,51,8.30
2017,10,30,09,52,8.40
2017,10,30,09,53,8.50
2017,10,30,09,54,8.60
2017,10,30,09,55,8.60
2017,10,30,09,56,8.70
2017,10,30,09,57,8.70
2017,10,30,09,58,8.70
2017,10,30,09,59,8.80
2017,10,30,10,00,8.80
2017,10,30,10,01,8.90
2017,10,30,10,02,8.90
2017,10,30,10,03,9.00
2017,10,30,10,04,9.10
2017,10,30,10,05,9.10
2017,10,30,10,06,9.20
2017,10,30,10,07,9.20
2017,10,30,10,08,9.30
2017,10,30,10,09,9.30
2017,10,30,10,10,9.40
2017,10,30,10,11,9.40
2017,10,30,10,12,9.50
2017,10,30,10,13,9.50
2017,10,30,10,14,9.50
2017,10,30,10,15,9.40
2017,10,30,10,16,9.40
2017,10,30,10,17,9.40
2017,10,30,10,18,9.40
2017,10,30,10,19,9.40
2017,10,30,10,20,9.40
2017,10,30,10,21,9.40
2017,10,30,10,22,9.40
2017,10,30,10,23,9.40
2017,10,30,10,24,9.40
2017,10,30,10,25,9.40
2017,10,30,10,26,9.40
2017,10,30,10,27,9.40
2017,10,30,10,28,9.40
2017,10,30,10,29,9.40
2017,10,30,10,30,9.40
2017,10,30,10,31,9.50
2017,10,30,10,32,9.50
2017,10,30,10,33,9.50
2017,10,30,10,34,9.50
2017,10,30,10,35,9.60
2017,10,30,10,36,9.70
2017,10,30,10,37,9.70
2017,10,30,10,38,9.80
2017,10,30,10,39,9.90
2017,10,30,10,40,10.00
2017,10,30,10,41,10.10
2017,10,30,10,42,10.10
2017,10,30,10,43,10.10
2017,10,30,10,44,10.10
2017,10,30,10,45,10.20
2017,10,30,10,46,10.20
2017,10,30,10,47,10.30
2017,10,30,10,48,10.30
2017,10,30,10,49,10.40
2017,10,30,10,50,10.50
2017,10,30,10,51,10.50
2017,10,30,10,52,10.50
2017,10,30,10,53,10.60
2017,10,30,10,54,10.60
2017,10,30,10,55,10.60
2017,10,30,10,56,10.60
2017,10,30,10,57,10.60
2017,10,30,10,58,10.60
2017,10,30,10,59,10.70
2017,10,30,11,00,10.70
2017,10,30,11,01,10.70
2017,10,30,11,02,10.70
2017,10,30,11,03,10.70
2017,10,30,11,04,10.80
2017,10,30,11,05,10.80
2017,10,30,11,06,10.90
2017,10,30,11,07,11.00
2017,10,30,11,08,11.10
2017,10,30,11,09,11.10
2017,10,30,11,10,11.20
2017,10,30,11,11,11.20
2017,10,30,11,12,11.30
2017,10,30,11,13,11.30
2017,10,30,11,14,11.40
2017,10,30,11,15,11.50
2017,10,30,11,16,11.60
2017,10,30,11,17,11.60
2017,10,30,11,18,11.70
2017,10,30,11,19,11.70
2017,10,30,11,20,11.80
2017,10,30,11,21,11.90
2017,10,30,11,22,12.00
2017,10,30,11,23,12.10
2017,10,30,11,24,12.20
2017,10,30,11,25,12.30
2017,10,30,11,26,12.30
2017,10,30,11,27,12.30
2017,10,30,11,28,12.40
2017,10,30,11,29,12.40
2017,10,30,11,30,12.50
2017,10,30,11,31,12.50
2017,10,30,11,32,12.60
2017,10,30,11,33,12.60
2017,10,30,11,34,12.50
2017,10,30,11,35,12.50
2017,10,30,11,36,12.40
2017,10,30,11,37,12.40
2017,10,30,11,38,12.40
2017,10,30,11,39,12.40
2017,10,30,11,40,12.30
2017,10,30,11,41,12.30
2017,10,30,11,42,12.30
2017,10,30,11,43,12.30
2017,10,30,11,44,12.30
2017,10,30,11,45,12.20
2017,10,30,11,46,12.20
2017,10,30,11,47,12.20
2017,10,30,11,48,12.10
2017,10,30,11,49,12.10
2017,10,30,11,50,12.10
2017,10,30,11,51,12.10
2017,10,30,11,52,12.10
2017,10,30,11,53,12.20
2017,10,30,11,54,12.20
2017,10,30,11,55,12.20
2017,10,30,11,56,12.30
2017,10,30,11,57,12.30
2017,10,30,11,58,12.30
2017,10,30,11,59,12.30
2017,10,30,12,00,12.30
2017,10,30,12,01,12.30
2017,10,30,12,02,12.40
2017,10,30,12,03,12.40
2017,10,30,12,04,12.40
2017,10,30,12,05,12.40
2017,10,30,12,06,12.40
2017,10,30,12,07,12.40
2017,10,30,12,08,12.40
2017,10,30,12,09,12.40
2017,10,30,12,10,12.40
2017,10,30,12,11,12.40
2017,10,30,12,12,12.40
2017,10,30,12,13,12.40
2017,10,30,12,14,12.40
2017,10,30,12,15,12.50
2017,10,30,12,16,12.50
2017,10,30,12,17,12.60
2017,10,30,12,18,12.70
2017,10,30,12,19,12.70
2017,10,30,12,20,12.80
2017,10,30,12,21,12.80
2017,10,30,12,22,12.90
2017,10,30,12,23,12.90
2017,10,30,12,24,13.00
2017,10,30,12,25,13.10
2017,10,30,12,26,13.20
2017,10,30,12,27,13.30
2017,10,30,12,28,13.30
2017,10,30,12,29,13.40
2017,10,30,12,30,13.40
2017,10,30,12,31,13.50
2017,10,30,12,32,13.60
2017,10,30,12,33,13.70
2017,10,30,12,34,13.70
2017,10,30,12,35,13.80
2017,10,30,12,36,13.90
2017,10,30,12,37,14.00
2017,10,30,12,38,14.10
2017,10,30,12,39,14.10
2017,10,30,12,40,14.10
2017,10,30,12,41,14.10
2017,10,30,12,42,14.00
2017,10,30,12,43,13.90
2017,10,30,12,44,13.90
2017,10,30,12,45,13.80
2017,10,30,12,46,13.80
2017,10,30,12,47,13.80
2017,10,30,12,48,13.90
2017,10,30,12,49,14.00
2017,10,30,12,50,14.10
2017,10,30,12,51,14.10
2017,10,30,12,52,14.20
2017,10,30,12,53,14.20
2017,10,30,12,54,14.10
2017,10,30,12,55,14.10
2017,10,30,12,56,14.00
2017,10,30,12,57,13.90
2017,10,30,12,58,13.90
2017,10,30,12,59,13.80
2017,10,30,13,00,13.80
2017,10,30,13,01,13.80
2017,10,30,13,02,13.80
2017,10,30,13,03,13.80
2017,10,30,13,04,13.80
2017,10,30,13,05,13.80
2017,10,30,13,06,13.90
2017,10,30,13,07,13.90
2017,10,30,13,08,13.90
2017,10,30,13,09,13.90
2017,10,30,13,10,13.80
2017,10,30,13,11,13.80
2017,10,30,13,12,13.80
2017,10,30,13,13,13.80
2017,10,30,13,14,13.80
2017,10,30,13,15,13.80
2017,10,30,13,16,13.70
2017,10,30,13,17,13.70
2017,10,30,13,18,13.70
2017,10,30,13,19,13.70
2017,10,30,13,20,13.60
2017,10,30,13,21,13.60
2017,10,30,13,22,13.50
2017,10,30,13,23,13.50
2017,10,30,13,24,13.40
2017,10,30,13,25,13.40
2017,10,30,13,26,13.40
2017,10,30,13,27,13.50
2017,10,30,13,28,13.50
2017,10,30,13,29,13.60
2017,10,30,13,30,13.60
2017,10,30,13,31,13.60
2017,10,30,13,32,13.60
2017,10,30,13,33,13.60
2017,10,30,13,34,13.60
2017,10,30,13,35,13.60
2017,10,30,13,36,13.60
2017,10,30,13,37,13.60
2017,10,30,13,38,13.70
2017,10,30,13,39,13.70
2017,10,30,13,40,13.70
2017,10,30,13,41,13.80
2017,10,30,13,42,13.80
2017,10,30,13,43,13.90
2017,10,30,13,44,13.90
2017,10,30,13,45,13.90
2017,10,30,13,46,13.90
2017,10,30,13,47,13.90
2017,10,30,13,48,14.00
2017,10,30,13,49,13.90
2017,10,30,13,50,13.90
2017,10,30,13,51,13.80
2017,10,30,13,52,13.80
2017,10,30,13,53,13.80
2017,10,30,13,54,13.90
2017,10,30,13,55,13.90
2017,10,30,13,56,13.90
2017,10,30,13,57,13.90
2017,10,30,13,58,13.90
2017,10,30,13,59,14.00
2017,10,30,14,00,13.90
2017,10,30,14,01,13.90
2017,10,30,14,02,13.90
2017,10,30,14,03,14.00
2017,10,30,14,04,14.00
2017,10,30,14,05,14.10
2017,10,30,14,06,14.10
2017,10,30,14,07,14.20
2017,10,30,14,08,14.20
2017,10,30,14,09,14.20
2017,10,30,14,10,14.20
2017,10,30,14,11,14.20
2017,10,30,14,12,14.10
2017,10,30,14,13,14.10
2017,10,30,14,14,14.10
2017,10,30,14,15,14.20
2017,10,30,14,16,14.20
2017,10,30,14,17,14.20
2017,10,30,14,18,14.20
2017,10,30,14,19,14.20
2017,10,30,14,20,14.20
2017,10,30,14,21,14.20
2017,10,30,14,22,14.20
2017,10,30,14,23,14.20
2017,10,30,14,24,14.30
2017,10,30,14,25,14.30
2017,10,30,14,26,14.30
2017,10,30,14,27,14.30
2017,10,30,14,28,14.30
2017,10,30,14,29,14.30
2017,10,30,14,30,14.30
2017,10,30,14,31,14.30
2017,10,30,14,32,14.30
2017,10,30,14,33,14.40
2017,10,30,14,34,14.40
2017,10,30,14,35,14.40
2017,10,30,14,36,14.40
2017,10,30,14,37,14.40
2017,10,30,14,38,14.30
2017,10,30,14,39,14.40
2017,10,30,14,40,14.40
2017,10,30,14,41,14.30
2017,10,30,14,42,14.30
2017,10,30,14,43,14.30
2017,10,30,14,44,14.30
2017,10,30,14,45,14.30
2017,10,30,14,46,14.30
2017,10,30,14,47,14.30
2017,10,30,14,48,14.30
2017,10,30,14,49,14.30
2017,10,30,14,50,14.30
2017,10,30,14,51,14.30
2017,10,30,14,52,14.30
2017,10,30,14,53,14.30
2017,10,30,14,54,14.30
2017,10,30,14,55,14.30
2017,10,30,14,56,14.30
2017,10,30,14,57,14.20
2017,10,30,14,58,14.20
2017,10,30,14,59,14.20
2017,10,30,15,00,14.20
2017,10,30,15,01,14.20
2017,10,30,15,02,14.10
2017,10,30,15,03,14.10
2017,10,30,15,04,14.10
2017,10,30,15,05,14.10
2017,10,30,15,06,14.10
2017,10,30,15,07,14.10
2017,10,30,15,08,14.10
2017,10,30,15,09,14.00
2017,10,30,15,10,14.00
2017,10,30,15,11,14.00
2017,10,30,15,12,14.00
2017,10,30,15,13,14.00
2017,10,30,15,14,14.00
2017,10,30,15,15,14.00
2017,10,30,15,16,14.00
2017,10,30,15,17,14.00
2017,10,30,15,18,14.00
2017,10,30,15,19,14.00
2017,10,30,15,20,13.90
2017,10,30,15,21,13.90
2017,10,30,15,22,13.90
2017,10,30,15,23,13.90
2017,10,30,15,24,13.90
2017,10,30,15,25,13.90
2017,10,30,15,26,13.90
2017,10,30,15,27,13.90
2017,10,30,15,28,13.90
2017,10,30,15,29,13.90
2017,10,30,15,30,13.90
2017,10,30,15,31,13.90
2017,10,30,15,32,14.00
2017,10,30,15,33,14.00
2017,10,30,15,34,14.00
2017,10,30,15,35,14.00
2017,10,30,15,36,14.00
2017,10,30,15,37,14.10
2017,10,30,15,38,14.10
2017,10,30,15,39,14.10
2017,10,30,15,40,14.10
2017,10,30,15,41,14.10
2017,10,30,15,42,14.10
2017,10,30,15,43,14.10
2017,10,30,15,44,14.10
2017,10,30,15,45,14.20
2017,10,30,15,46,14.10
2017,10,30,15,47,14.10
2017,10,30,15,48,14.10
2017,10,30,15,49,14.10
2017,10,30,15,50,14.10
2017,10,30,15,51,14.00
2017,10,30,15,52,14.00
2017,10,30,15,53,14.00
2017,10,30,15,54,14.00
2017,10,30,15,55,14.00
2017,10,30,15,56,14.00
2017,10,30,15,57,14.00
2017,10,30,15,58,14.00
2017,10,30,15,59,14.00
2017,10,30,16,00,14.00
2017,10,30,16,01,14.00
2017,10,30,16,02,13.90
2017,10,30,16,03,13.90
2017,10,30,16,04,13.90
2017,10,30,16,05,13.90
2017,10,30,16,06,13.90
2017,10,30,16,07,13.90
2017,10,30,16,08,13.90
2017,10,30,16,09,14.00
2017,10,30,16,10,14.00
2017,10,30,16,11,14.00
2017,10,30,16,12,14.00
2017,10,30,16,13,14.00
2017,10,30,16,14,14.00
2017,10,30,16,15,14.00
2017,10,30,16,16,14.00
2017,10,30,16,17,14.00
2017,10,30,16,18,14.00
2017,10,30,16,19,14.00
2017,10,30,16,20,14.10
2017,10,30,16,21,14.10
2017,10,30,16,22,14.10
2017,10,30,16,23,14.10
2017,10,30,16,24,14.10
2017,10,30,16,25,14.10
2017,10,30,16,26,14.10
2017,10,30,16,27,14.10
2017,10,30,16,28,14.10
2017,10,30,16,29,14.00
2017,10,30,16,30,14.00
2017,10,30,16,31,14.00
2017,10,30,16,32,14.00
2017,10,30,16,33,14.00
2017,10,30,16,34,14.00
2017,10,30,16,35,14.00
2017,10,30,16,36,14.00
2017,10,30,16,37,14.00
2017,10,30,16,38,14.00
2017,10,30,16,39,13.90
2017,10,30,16,40,13.90
2017,10,30,16,41,13.90
2017,10,30,16,42,13.90
2017,10,30,16,43,13.90
2017,10,30,16,44,13.90
2017,10,30,16,45,13.90
2017,10,30,16,46,14.00
2017,10,30,16,47,14.00
2017,10,30,16,48,14.00
2017,10,30,16,49,14.00
2017,10,30,16,50,14.10
2017,10,30,16,51,14.10
2017,10,30,16,52,14.10
2017,10,30,16,53,14.10
2017,10,30,16,54,14.10
2017,10,30,16,55,14.20
2017,10,30,16,56,14.30
2017,10,30,16,57,14.40
2017,10,30,16,58,14.50
2017,10,30,16,59,14.40
2017,10,30,17,00,14.40
2017,10,30,17,01,14.40
2017,10,30,17,02,14.30
2017,10,30,17,03,14.30
2017,10,30,17,04,14.30
2017,10,30,17,05,14.20
2017,10,30,17,06,14.20
2017,10,30,17,07,14.10
2017,10,30,17,08,14.10
2017,10,30,17,09,14.10
2017,10,30,17,10,14.10
2017,10,30,17,11,14.10
2017,10,30,17,12,14.00
2017,10,30,17,13,14.10
2017,10,30,17,14,14.00
2017,10,30,17,15,14.10
2017,10,30,17,16,14.10
2017,10,30,17,17,14.10
2017,10,30,17,18,14.10
2017,10,30,17,19,14.10
2017,10,30,17,20,14.20
2017,10,30,17,21,14.20
2017,10,30,17,22,14.20
2017,10,30,17,23,14.20
2017,10,30,17,24,14.20
2017,10,30,17,25,14.20
2017,10,30,17,26,14.20
2017,10,30,17,27,14.30
2017,10,30,17,28,14.30
2017,10,30,17,29,14.30
2017,10,30,17,30,14.30
2017,10,30,17,31,14.30
2017,10,30,17,32,14.30
2017,10,30,17,33,14.20
2017,10,30,17,34,14.10
2017,10,30,17,35,14.00
2017,10,30,17,36,13.90
2017,10,30,17,37,13.80
2017,10,30,17,38,13.80
2017,10,30,17,39,13.70
2017,10,30,17,40,13.70
2017,10,30,17,41,13.60
2017,10,30,17,42,13.60
2017,10,30,17,43,13.60
2017,10,30,17,44,13.50
2017,10,30,17,45,13.40
2017,10,30,17,46,13.40
2017,10,30,17,47,13.30